Terug naar catalogus

IRIDIUM 166

ActiefCommunicatiePO
NORAD 43570·PAYLOAD·🇺🇸 United States

Gelanceerd Jul 25, 2018 vanaf Vandenberg Space Force Base

Loading…

Volgende Passages (komende 24 uur)

TLE

VersSource: CelesTrak SupGP

Epoch: Sep 14, 2026, 21:50 UTC

1 43570C 18061B   26257.91006944 -.00001720  00000+0 -61503-3 0  2576
2 43570  86.4012  19.2220 0002152  95.1797  71.4444 14.34219674    12

Volg IRIDIUM 166 in realtime met AllMySat

Download on the App Store